Station History

Weather Underground - logo

Station Historical Data
Daily Summary for October 26, 2017 Units:  English    Metric   Both
« Previous Day
Next Day »
Daily Weekly Monthly Yearly Custom
  High: Low: Average:
Temperature: TemperatureF °F 52.4 °F 68 °F
Dew Point: DewpointF °F 49.6 °F 54.1 °F
Humidity: Humidity % 31 % 65 %
Wind Speed: WindSpeedMPH mph 0.0 mph 0.4 mph
Wind Gust: WindSpeedGustMPH mph - -
Wind:- - West
Pressure: PressureIn in 29.84 in -
Precipitation: 0.00 in    
Historical Graphs
 
 
Tabular Data for October 26, 2017
Time Temperature Dew Point Pressure Wind Wind Speed Wind Gust Humidity Rainfall Rate (Hourly)
TemperatureF °F DewpointF °F PressureIn in Calm     Humidity % HourlyPrecipIn in
00:02 58.4 °F 54.2 °F 29.87 in Calm     86 % 0.00 in
00:07 58.2 °F 54.0 °F 29.87 in Calm     86 % 0.00 in
00:12 58.1 °F 54.2 °F 29.87 in Calm     87 % 0.00 in
00:17 58.1 °F 54.6 °F 29.86 in Calm     88 % 0.00 in
00:22 58.2 °F 54.7 °F 29.86 in Calm     88 % 0.00 in
00:27 58.1 °F 54.6 °F 29.86 in Calm     88 % 0.00 in
00:32 58.1 °F 53.9 °F 29.86 in Calm     86 % 0.00 in
00:37 58.1 °F 53.9 °F 29.86 in Calm     86 % 0.00 in
00:42 58.1 °F 53.9 °F 29.86 in Calm     86 % 0.00 in
00:47 58.0 °F 53.8 °F 29.86 in Calm     86 % 0.00 in
00:52 57.8 °F 53.6 °F 29.86 in Calm     86 % 0.00 in
00:57 57.4 °F 53.2 °F 29.86 in Calm     86 % 0.00 in
01:02 57.1 °F 53.0 °F 29.87 in Calm     86 % 0.00 in
01:11 56.5 °F 52.7 °F 29.87 in Calm     87 % 0.00 in
01:16 56.1 °F 52.3 °F 29.87 in Calm     87 % 0.00 in
01:21 56.1 °F 52.3 °F 29.87 in Calm     87 % 0.00 in
01:26 56.1 °F 52.3 °F 29.87 in Calm     87 % 0.00 in
01:31 55.9 °F 52.1 °F 29.87 in Calm     87 % 0.00 in
01:36 55.8 °F 52.0 °F 29.87 in Calm     87 % 0.00 in
01:41 56.0 °F 52.2 °F 29.87 in Calm     87 % 0.00 in
01:46 56.4 °F 52.3 °F 29.87 in Calm     86 % 0.00 in
01:51 56.7 °F 52.2 °F 29.87 in Calm     85 % 0.00 in
01:56 57.0 °F 52.2 °F 29.87 in Calm     84 % 0.00 in
02:01 57.0 °F 52.2 °F 29.87 in Calm     84 % 0.00 in
02:06 56.8 °F 51.7 °F 29.87 in Calm     83 % 0.00 in
02:11 56.8 °F 51.7 °F 29.87 in Calm     83 % 0.00 in
02:16 56.8 °F 51.7 °F 29.86 in Calm     83 % 0.00 in
02:21 56.7 °F 51.9 °F 29.87 in Calm     84 % 0.00 in
02:26 56.5 °F 51.7 °F 29.87 in Calm     84 % 0.00 in
02:31 56.6 °F 51.5 °F 29.86 in Calm     83 % 0.00 in
02:36 56.5 °F 51.4 °F 29.87 in Calm     83 % 0.00 in
02:41 56.2 °F 51.4 °F 29.87 in Calm     84 % 0.00 in
02:47 56.2 °F 51.4 °F 29.87 in Calm     84 % 0.00 in
02:52 56.1 °F 51.3 °F 29.87 in Calm     84 % 0.00 in
02:57 56.1 °F 51.3 °F 29.87 in Calm     84 % 0.00 in
03:02 56.0 °F 51.2 °F 29.87 in Calm     84 % 0.00 in
03:07 56.0 °F 51.6 °F 29.87 in Calm     85 % 0.00 in
03:12 56.2 °F 51.4 °F 29.87 in Calm     84 % 0.00 in
03:17 56.6 °F 51.8 °F 29.86 in Calm     84 % 0.00 in
03:22 56.7 °F 51.6 °F 29.86 in Calm     83 % 0.00 in
03:27 56.5 °F 51.4 °F 29.86 in Calm     83 % 0.00 in
03:32 56.5 °F 52.0 °F 29.86 in Calm     85 % 0.00 in
03:37 56.5 °F 52.0 °F 29.86 in Calm     85 % 0.00 in
03:42 56.5 °F 52.0 °F 29.86 in Calm     85 % 0.00 in
03:47 56.4 °F 51.6 °F 29.86 in Calm     84 % 0.00 in
03:52 56.2 °F 51.4 °F 29.86 in Calm     84 % 0.00 in
03:57 56.0 °F 51.2 °F 29.86 in Calm     84 % 0.00 in
04:02 55.8 °F 51.4 °F 29.86 in Calm     85 % 0.00 in
04:07 55.5 °F 51.1 °F 29.86 in Calm     85 % 0.00 in
04:12 55.2 °F 50.8 °F 29.86 in Calm     85 % 0.00 in
04:17 55.0 °F 50.9 °F 29.86 in Calm     86 % 0.00 in
04:22 54.8 °F 50.7 °F 29.86 in Calm     86 % 0.00 in
04:27 54.8 °F 50.7 °F 29.86 in Calm     86 % 0.00 in
04:32 54.9 °F 50.8 °F 29.86 in Calm     86 % 0.00 in
04:37 54.7 °F 50.6 °F 29.86 in Calm     86 % 0.00 in
04:42 54.7 °F 50.9 °F 29.87 in Calm     87 % 0.00 in
04:47 54.7 °F 51.2 °F 29.86 in Calm     88 % 0.00 in
04:52 54.8 °F 51.3 °F 29.86 in Calm     88 % 0.00 in
04:57 54.8 °F 51.0 °F 29.86 in Calm     87 % 0.00 in
05:02 54.9 °F 51.1 °F 29.86 in Calm     87 % 0.00 in
05:07 54.8 °F 50.7 °F 29.86 in Calm     86 % 0.00 in
05:12 54.6 °F 50.5 °F 29.86 in Calm     86 % 0.00 in
05:17 54.5 °F 50.4 °F 29.87 in Calm     86 % 0.00 in
05:22 54.5 °F 50.7 °F 29.87 in Calm     87 % 0.00 in
05:27 54.3 °F 50.5 °F 29.87 in Calm     87 % 0.00 in
05:32 54.2 °F 50.7 °F 29.87 in Calm     88 % 0.00 in
05:37 54.2 °F 50.4 °F 29.87 in Calm     87 % 0.00 in
05:42 54.0 °F 50.2 °F 29.87 in Calm     87 % 0.00 in
05:47 53.7 °F 49.9 °F 29.87 in Calm     87 % 0.00 in
05:52 53.6 °F 50.1 °F 29.88 in Calm     88 % 0.00 in
05:57 53.6 °F 49.8 °F 29.88 in Calm     87 % 0.00 in
06:02 53.4 °F 49.6 °F 29.88 in Calm     87 % 0.00 in
06:07 53.4 °F 50.2 °F 29.88 in Calm     89 % 0.00 in
06:12 53.4 °F 50.2 °F 29.88 in Calm     89 % 0.00 in
06:17 53.2 °F 50.0 °F 29.88 in Calm     89 % 0.00 in
06:22 53.2 °F 50.0 °F 29.88 in Calm     89 % 0.00 in
06:27 53.1 °F 49.9 °F 29.88 in Calm     89 % 0.00 in
06:32 53.1 °F 49.9 °F 29.88 in Calm     89 % 0.00 in
06:37 53.1 °F 49.9 °F 29.89 in Calm     89 % 0.00 in
06:42 53.0 °F 49.8 °F 29.89 in Calm     89 % 0.00 in
06:47 52.8 °F 49.6 °F 29.89 in Calm     89 % 0.00 in
06:52 52.7 °F 49.8 °F 29.89 in Calm     90 % 0.00 in
06:57 52.6 °F 49.8 °F 29.89 in Calm     90 % 0.00 in
07:02 52.4 °F 49.6 °F 29.89 in Calm     90 % 0.00 in
07:07 52.5 °F 49.7 °F 29.89 in Calm     90 % 0.00 in
07:12 52.5 °F 49.7 °F 29.89 in Calm     90 % 0.00 in
07:17 52.4 °F 49.6 °F 29.89 in Calm     90 % 0.00 in
07:22 52.5 °F 49.7 °F 29.89 in Calm     90 % 0.00 in
07:27 52.6 °F 49.8 °F 29.89 in Calm     90 % 0.00 in
07:32 52.8 °F 49.9 °F 29.89 in Calm     90 % 0.00 in
07:37 52.9 °F 49.7 °F 29.89 in Calm     89 % 0.00 in
07:42 53.0 °F 50.1 °F 29.89 in Calm     90 % 0.00 in
07:47 53.1 °F 50.2 °F 29.89 in Calm     90 % 0.00 in
07:52 53.3 °F 50.4 °F 29.89 in Calm     90 % 0.00 in
07:57 53.7 °F 50.5 °F 29.90 in Calm     89 % 0.00 in
08:02 54.2 °F 51.0 °F 29.90 in Calm     89 % 0.00 in
08:07 54.9 °F 51.4 °F 29.90 in Calm     88 % 0.00 in
08:12 55.7 °F 51.6 °F 29.91 in Calm     86 % 0.00 in
08:17 57.2 °F 52.4 °F 29.91 in Calm     84 % 0.00 in
08:22 58.9 °F 52.7 °F 29.91 in Calm     80 % 0.00 in
08:27 60.5 °F 52.9 °F 29.91 in Calm     76 % 0.00 in
08:32 61.7 °F 53.0 °F 29.91 in Calm     73 % 0.00 in
08:37 63.2 °F 53.6 °F 29.92 in Calm     71 % 0.00 in
08:42 65.2 °F 53.1 °F 29.91 in Calm     65 % 0.00 in
08:47 67.1 °F 53.6 °F 29.91 in Calm     62 % 0.00 in
08:52 68.1 °F 52.8 °F 29.91 in Calm     58 % 0.00 in
08:57 69.1 °F 53.7 °F 29.91 in Calm     58 % 0.00 in
09:08 70.1 °F 53.7 °F 29.91 in SE 1.2 mph   56 % 0.00 in
09:13 70.5 °F 54.5 °F 29.91 in Calm     57 % 0.00 in
09:18 70.7 °F 54.2 °F 29.91 in Calm     56 % 0.00 in
09:23 71.3 °F 54.8 °F 29.91 in Calm     56 % 0.00 in
09:28 72.0 °F 54.9 °F 29.91 in Calm     55 % 0.00 in
09:33 72.6 °F 55.0 °F 29.91 in Calm     54 % 0.00 in
09:38 73.0 °F 54.3 °F 29.91 in Calm     52 % 0.00 in
09:43 73.5 °F 54.3 °F 29.91 in Calm     51 % 0.00 in
09:48 74.2 °F 54.9 °F 29.91 in Calm     51 % 0.00 in
09:53 75.1 °F 54.6 °F 29.91 in Calm     49 % 0.00 in
09:58 76.1 °F 55.5 °F 29.91 in Calm     49 % 0.00 in
10:03 76.5 °F 55.9 °F 29.91 in South 1.2 mph 1.2 mph 49 % 0.00 in
10:08 76.8 °F 56.2 °F 29.91 in Calm     49 % 0.00 in
10:13 77.0 °F 56.4 °F 29.91 in Calm     49 % 0.00 in
10:18 77.5 °F 56.8 °F 29.91 in South 1.2 mph 1.2 mph 49 % 0.00 in
10:23 77.6 °F 55.8 °F 29.91 in NNW 1.2 mph   47 % 0.00 in
10:28 77.5 °F 55.1 °F 29.91 in Calm     46 % 0.00 in
10:33 77.7 °F 56.4 °F 29.91 in WNW 1.2 mph   48 % 0.00 in
10:38 77.4 °F 55.6 °F 29.91 in NW 1.2 mph 1.2 mph 47 % 0.00 in
10:43 77.4 °F 56.2 °F 29.91 in Calm     48 % 0.00 in
10:48 77.9 °F 56.6 °F 29.91 in SE 1.2 mph 1.2 mph 48 % 0.00 in
10:53 78.5 °F 55.4 °F 29.91 in SE 1.2 mph 1.2 mph 45 % 0.00 in
10:58 78.8 °F 55.0 °F 29.91 in SE 1.2 mph 1.2 mph 44 % 0.00 in
11:03 78.9 °F 55.8 °F 29.91 in Calm     45 % 0.00 in
11:08 79.0 °F 55.8 °F 29.91 in SE 2.3 mph 2.3 mph 45 % 0.00 in
11:13 79.4 °F 55.6 °F 29.90 in SW 1.2 mph 1.2 mph 44 % 0.00 in
11:18 79.7 °F 55.2 °F 29.90 in SW 1.2 mph 1.2 mph 43 % 0.00 in
11:23 79.8 °F 55.3 °F 29.90 in WNW 1.2 mph 1.2 mph 43 % 0.00 in
11:28 79.8 °F 55.9 °F 29.90 in SSE 2.3 mph 2.3 mph 44 % 0.00 in
11:33 80.7 °F 56.1 °F 29.90 in WSW 1.0 mph   43 % 0.00 in
11:38 80.7 °F 55.5 °F 29.90 in NNW 1.2 mph 1.2 mph 42 % 0.00 in
11:43 81.1 °F 55.8 °F 29.90 in WNW 1.2 mph 1.2 mph 42 % 0.00 in
11:48 81.4 °F 55.4 °F 29.90 in NW 1.2 mph 1.2 mph 41 % 0.00 in
11:53 81.4 °F 55.4 °F 29.90 in NNW 1.2 mph 1.2 mph 41 % 0.00 in
11:58 81.7 °F 55.7 °F 29.90 in SW 1.2 mph 1.2 mph 41 % 0.00 in
12:03 82.3 °F 56.2 °F 29.90 in Calm     41 % 0.00 in
12:08 82.6 °F 55.1 °F 29.89 in NNW 1.2 mph 1.2 mph 39 % 0.00 in
12:13 82.8 °F 56.7 °F 29.89 in SE 1.2 mph 1.2 mph 41 % 0.00 in
12:18 83.0 °F 55.5 °F 29.89 in NW 1.2 mph 1.2 mph 39 % 0.00 in
12:23 82.9 °F 55.4 °F 29.89 in WSW 2.3 mph 2.3 mph 39 % 0.00 in
12:28 83.2 °F 57.1 °F 29.89 in NW 2.0 mph 2.0 mph 41 % 0.00 in
12:33 83.4 °F 56.5 °F 29.89 in Calm     40 % 0.00 in
12:38 84.0 °F 55.7 °F 29.89 in SE 1.2 mph   38 % 0.00 in
12:43 84.4 °F 56.7 °F 29.89 in ESE 1.2 mph 1.2 mph 39 % 0.00 in
12:48 84.3 °F 57.3 °F 29.88 in West 1.2 mph 1.2 mph 40 % 0.00 in
12:53 84.0 °F 56.4 °F 29.88 in NW 2.3 mph 2.3 mph 39 % 0.00 in
12:58 84.1 °F 55.7 °F 29.88 in SSE 2.3 mph 2.3 mph 38 % 0.00 in
13:03 84.5 °F 58.2 °F 29.87 in NW 1.2 mph 1.2 mph 41 % 0.00 in
13:08 84.4 °F 56.0 °F 29.87 in NW 2.3 mph 2.3 mph 38 % 0.00 in
13:13 84.4 °F 56.7 °F 29.87 in NW 2.3 mph 2.3 mph 39 % 0.00 in
13:18 84.5 °F 56.8 °F 29.87 in Calm     39 % 0.00 in
13:23 84.7 °F 56.3 °F 29.87 in West 1.2 mph 1.2 mph 38 % 0.00 in
13:28 84.9 °F 57.2 °F 29.87 in WNW 2.3 mph 2.3 mph 39 % 0.00 in
13:33 85.1 °F 56.6 °F 29.86 in Calm   0.2 mph 38 % 0.00 in
13:38 85.3 °F 56.1 °F 29.86 in Calm   0.3 mph 37 % 0.00 in
13:43 85.5 °F 58.4 °F 29.86 in NW 2.0 mph 2.0 mph 40 % 0.00 in
13:48 85.6 °F 55.6 °F 29.86 in NW 1.2 mph   36 % 0.00 in
13:53 85.8 °F 56.5 °F 29.86 in NW 2.0 mph 2.0 mph 37 % 0.00 in
13:58 85.9 °F 55.8 °F 29.86 in WNW 1.2 mph 1.2 mph 36 % 0.00 in
14:03 86.3 °F 57.0 °F 29.86 in NW 2.3 mph 2.3 mph 37 % 0.00 in
14:08 86.3 °F 54.6 °F 29.86 in Calm     34 % 0.00 in
14:13 86.5 °F 54.8 °F 29.86 in NW 1.0 mph 1.0 mph 34 % 0.00 in
14:18 86.5 °F 54.8 °F 29.86 in Calm     34 % 0.00 in
14:23 86.7 °F 55.0 °F 29.86 in SSW 1.2 mph   34 % 0.00 in
14:28 86.9 °F 53.5 °F 29.86 in West 3.5 mph 3.5 mph 32 % 0.00 in
14:33 87.0 °F 54.4 °F 29.85 in NW 2.3 mph 2.3 mph 33 % 0.00 in
14:38 87.2 °F 53.7 °F 29.85 in NW 1.2 mph   32 % 0.00 in
14:43 87.3 °F 54.7 °F 29.85 in SW 2.0 mph 2.0 mph 33 % 0.00 in
14:48 87.3 °F 55.5 °F 29.85 in SSW 3.5 mph 3.5 mph 34 % 0.00 in
14:53 87.2 °F 55.4 °F 29.85 in Calm     34 % 0.00 in
14:58 87.4 °F 55.6 °F 29.85 in WNW 2.3 mph 2.3 mph 34 % 0.00 in
15:03 87.3 °F 56.3 °F 29.85 in NNW 2.3 mph 2.3 mph 35 % 0.00 in
15:08 87.6 °F 57.3 °F 29.85 in NW 1.2 mph 1.2 mph 36 % 0.00 in
15:13 87.6 °F 55.8 °F 29.84 in NW 3.5 mph 3.5 mph 34 % 0.00 in
15:18 87.4 °F 55.6 °F 29.85 in NW 2.3 mph 2.3 mph 34 % 0.00 in
15:23 87.2 °F 54.6 °F 29.85 in NW 2.3 mph 2.3 mph 33 % 0.00 in
15:28 87.2 °F 54.6 °F 29.85 in NW 1.2 mph   33 % 0.00 in
15:34 87.2 °F 54.6 °F 29.85 in WNW 3.0 mph 3.0 mph 33 % 0.00 in
15:39 87.2 °F 53.7 °F 29.85 in West 1.2 mph 1.2 mph 32 % 0.00 in
15:44 87.1 °F 54.5 °F 29.85 in WSW 2.3 mph 2.3 mph 33 % 0.00 in
15:49 87.0 °F 54.4 °F 29.85 in NW 2.3 mph 2.3 mph 33 % 0.00 in
15:54 86.9 °F 55.2 °F 29.85 in Calm     34 % 0.00 in
15:59 86.8 °F 54.2 °F 29.85 in NW 2.3 mph 2.3 mph 33 % 0.00 in
16:04 86.6 °F 54.1 °F 29.84 in NNW 2.3 mph 2.3 mph 33 % 0.00 in
16:09 86.5 °F 53.1 °F 29.84 in NW 1.2 mph 1.2 mph 32 % 0.00 in
16:14 86.4 °F 52.2 °F 29.85 in NW 2.3 mph 2.3 mph 31 % 0.00 in
16:19 86.2 °F 52.9 °F 29.84 in WNW 2.3 mph 2.3 mph 32 % 0.00 in
16:29 86.0 °F 52.7 °F 29.84 in NNW 1.2 mph 1.2 mph 32 % 0.00 in
16:34 85.8 °F 54.2 °F 29.84 in NW 2.3 mph 2.3 mph 34 % 0.00 in
16:39 85.7 °F 54.1 °F 29.84 in West 2.3 mph 2.3 mph 34 % 0.00 in
16:44 85.5 °F 54.7 °F 29.84 in NW 1.0 mph 1.0 mph 35 % 0.00 in
16:49 85.3 °F 54.5 °F 29.84 in Calm     35 % 0.00 in
16:54 85.2 °F 56.0 °F 29.84 in Calm     37 % 0.00 in
16:59 85.1 °F 54.4 °F 29.84 in Calm     35 % 0.00 in
17:04 84.8 °F 54.9 °F 29.84 in NW 1.0 mph 1.0 mph 36 % 0.00 in
17:09 84.5 °F 56.8 °F 29.84 in Calm   0.1 mph 39 % 0.00 in
17:14 84.2 °F 56.6 °F 29.84 in Calm     39 % 0.00 in
17:19 83.9 °F 57.0 °F 29.84 in Calm     40 % 0.00 in
17:24 83.5 °F 57.3 °F 29.84 in Calm     41 % 0.00 in
17:29 83.0 °F 56.9 °F 29.84 in Calm     41 % 0.00 in
17:34 82.7 °F 57.3 °F 29.84 in Calm     42 % 0.00 in
17:39 82.4 °F 57.7 °F 29.84 in Calm     43 % 0.00 in
17:44 81.7 °F 57.7 °F 29.84 in Calm     44 % 0.00 in
17:49 80.7 °F 57.4 °F 29.84 in Calm     45 % 0.00 in
17:54 79.8 °F 58.4 °F 29.85 in Calm     48 % 0.00 in
17:59 78.7 °F 58.5 °F 29.85 in Calm     50 % 0.00 in
18:04 78.1 °F 58.5 °F 29.84 in Calm     51 % 0.00 in
18:09 77.4 °F 57.9 °F 29.85 in Calm     51 % 0.00 in
18:14 76.7 °F 58.8 °F 29.85 in Calm     54 % 0.00 in
18:19 75.9 °F 58.6 °F 29.85 in Calm     55 % 0.00 in
18:24 75.0 °F 59.2 °F 29.85 in Calm     58 % 0.00 in
18:29 74.1 °F 58.4 °F 29.85 in Calm     58 % 0.00 in
18:34 73.5 °F 58.3 °F 29.85 in Calm     59 % 0.00 in
18:40 73.0 °F 58.3 °F 29.85 in Calm     60 % 0.00 in
18:45 72.4 °F 58.6 °F 29.86 in Calm     62 % 0.00 in
18:50 71.8 °F 58.5 °F 29.86 in Calm     63 % 0.00 in
18:55 71.3 °F 58.1 °F 29.86 in Calm     63 % 0.00 in
19:00 71.0 °F 57.8 °F 29.86 in Calm     63 % 0.00 in
19:05 70.8 °F 58.0 °F 29.86 in Calm     64 % 0.00 in
19:10 70.6 °F 58.3 °F 29.86 in Calm     65 % 0.00 in
19:15 70.3 °F 58.4 °F 29.87 in Calm     66 % 0.00 in
19:20 69.8 °F 58.3 °F 29.87 in Calm     67 % 0.00 in
19:25 69.2 °F 57.4 °F 29.87 in Calm     66 % 0.00 in
19:30 69.1 °F 57.7 °F 29.87 in Calm     67 % 0.00 in
19:35 69.0 °F 57.6 °F 29.87 in Calm     67 % 0.00 in
19:40 69.0 °F 57.6 °F 29.87 in Calm     67 % 0.00 in
19:45 68.8 °F 57.4 °F 29.87 in Calm     67 % 0.00 in
19:50 68.5 °F 57.1 °F 29.87 in Calm     67 % 0.00 in
19:55 68.3 °F 57.3 °F 29.87 in Calm     68 % 0.00 in
20:00 68.0 °F 57.4 °F 29.87 in Calm     69 % 0.00 in
20:05 67.7 °F 57.2 °F 29.87 in Calm     69 % 0.00 in
20:10 67.5 °F 57.4 °F 29.87 in Calm     70 % 0.00 in
20:15 67.4 °F 57.3 °F 29.87 in Calm     70 % 0.00 in
20:20 67.4 °F 57.3 °F 29.87 in Calm     70 % 0.00 in
20:25 67.2 °F 57.1 °F 29.87 in Calm     70 % 0.00 in
20:30 66.8 °F 57.5 °F 29.87 in Calm     72 % 0.00 in
20:35 66.3 °F 57.4 °F 29.87 in Calm     73 % 0.00 in
20:40 65.7 °F 57.2 °F 29.87 in Calm     74 % 0.00 in
20:45 65.2 °F 57.1 °F 29.88 in Calm     75 % 0.00 in
20:50 65.3 °F 57.2 °F 29.88 in Calm     75 % 0.00 in
20:55 65.4 °F 56.9 °F 29.88 in Calm     74 % 0.00 in
21:00 65.3 °F 56.8 °F 29.88 in Calm     74 % 0.00 in
21:05 65.1 °F 56.6 °F 29.88 in Calm     74 % 0.00 in
21:10 65.0 °F 56.9 °F 29.89 in Calm     75 % 0.00 in
21:15 64.8 °F 56.7 °F 29.89 in Calm     75 % 0.00 in
21:20 64.6 °F 56.9 °F 29.89 in Calm     76 % 0.00 in
21:25 64.3 °F 56.6 °F 29.89 in Calm     76 % 0.00 in
21:30 64.2 °F 56.8 °F 29.89 in Calm     77 % 0.00 in
21:35 64.1 °F 56.4 °F 29.90 in Calm     76 % 0.00 in
21:40 63.9 °F 56.2 °F 29.90 in Calm     76 % 0.00 in
21:45 63.7 °F 56.4 °F 29.90 in Calm     77 % 0.00 in
21:50 63.4 °F 56.1 °F 29.90 in Calm     77 % 0.00 in
21:55 63.2 °F 56.2 °F 29.90 in Calm     78 % 0.00 in
22:00 62.8 °F 55.8 °F 29.90 in Calm     78 % 0.00 in
22:05 62.2 °F 55.6 °F 29.90 in Calm     79 % 0.00 in
22:10 61.8 °F 55.6 °F 29.90 in Calm     80 % 0.00 in
22:15 61.6 °F 55.4 °F 29.90 in Calm     80 % 0.00 in
22:21 61.4 °F 55.5 °F 29.91 in Calm     81 % 0.00 in
22:26 60.6 °F 54.7 °F 29.91 in Calm     81 % 0.00 in
22:30 60.1 °F 54.6 °F 29.91 in Calm     82 % 0.00 in
22:35 59.7 °F 54.5 °F 29.91 in Calm     83 % 0.00 in
22:41 59.5 °F 54.7 °F 29.91 in Calm     84 % 0.00 in
22:46 59.4 °F 54.6 °F 29.91 in Calm     84 % 0.00 in
22:51 59.4 °F 54.9 °F 29.91 in Calm     85 % 0.00 in
22:56 59.4 °F 54.6 °F 29.92 in Calm     84 % 0.00 in
23:01 59.3 °F 54.8 °F 29.92 in Calm     85 % 0.00 in
23:06 59.3 °F 54.8 °F 29.92 in Calm     85 % 0.00 in
23:11 59.5 °F 55.0 °F 29.92 in Calm     85 % 0.00 in
23:16 59.6 °F 54.8 °F 29.91 in Calm     84 % 0.00 in
23:21 59.5 °F 54.7 °F 29.91 in Calm     84 % 0.00 in
23:26 59.2 °F 54.4 °F 29.91 in Calm     84 % 0.00 in
23:31 59.0 °F 54.5 °F 29.91 in Calm     85 % 0.00 in
23:36 59.0 °F 54.8 °F 29.91 in Calm     86 % 0.00 in
23:41 59.1 °F 54.9 °F 29.92 in Calm     86 % 0.00 in
23:46 59.7 °F 54.9 °F 29.91 in West 1.2 mph   84 % 0.00 in
23:51 60.1 °F 54.9 °F 29.91 in West 1.2 mph   83 % 0.00 in
23:56 60.3 °F 54.4 °F 29.91 in Calm     81 % 0.00 in
Park Place, Exeter, Tulare County, California, USA
Compliments of Weather Underground - 2.75 mb